Change the Weather History Date:

Thursday, April 17, 2014

  Actual Average Record
Temperature  
Mean Temperature 48 °F -  
Max Temperature 51 °F 52 °F 57 °F (1997)
Min Temperature 46 °F 42 °F 33 °F (2011)
Degree Days  
Heating Degree Days 16    
Moisture  
Dew Point 48 °F    
Average Humidity 94    
Maximum Humidity 100    
Minimum Humidity 81    
Precipitation  
Precipitation 0.37 in - - ()
Sea Level Pressure  
Sea Level Pressure 29.98 in    
Wind  
Wind Speed 7 mph (SSW)    
Max Wind Speed 30 mph    
Max Gust Speed 38 mph    
Visibility 5 miles    
Events Rain    
Averages and records for this station are not official NWS values.
T = Trace of Precipitation, MM = Missing Value Source: NWS Daily Summary

Daily Weather History Graph

Daily Weather History Graph

Search for Another Location

Airport or City:

Trip Planner

Search our weather history database for the weather conditions in past years. The results will help you decide how hot, cold, wet, or windy it might be!

Date:

Astronomy

Apr. 17, 2014 Rise Set
Actual Time 6:28 AM PDT 8:03 PM PDT
Civil Twilight 5:57 AM PDT 8:34 PM PDT
Nautical Twilight 5:20 AM PDT 9:11 PM PDT
Astronomical Twilight 4:41 AM PDT 9:51 PM PDT
Moon 11:00 PM PDT (4/17) 8:00 AM PDT (4/17)
Length of Visible Light 14h 36m
Length of Day
13h 35m
Waning Gibbous, 93% of the Moon is Illuminated
Apr 17
Waning Gibbous
Apr 22
Last Quarter
Apr 28
New
May 6
First Quarter
May 14
Full

Hourly Weather History & Observations

Time (PDT) Temp. Windchill Dew Point Humidity Pressure Visibility Wind Dir Wind Speed Gust Speed Precip Events Conditions
12:15 AM 50.0 °F - 50.0 °F 100% 30.04 in 7.0 mi Calm Calm - N/A   Drizzle
12:35 AM 50.0 °F - 50.0 °F 100% 30.03 in 5.0 mi Calm Calm - N/A   Light Drizzle
12:55 AM 50.0 °F - 50.0 °F 100% 30.03 in 5.0 mi Calm Calm - N/A   Overcast
1:15 AM 50.0 °F - 50.0 °F 100% 30.03 in 5.0 mi Calm Calm - N/A   Overcast
1:35 AM 50.0 °F - 50.0 °F 100% 30.02 in 5.0 mi Calm Calm - N/A   Overcast
1:55 AM 50.0 °F - 48.2 °F 94% 30.01 in 7.0 mi South 5.8 mph - N/A   Overcast
2:15 AM 50.0 °F - 48.2 °F 94% 30.01 in 7.0 mi South 3.5 mph - N/A   Overcast
2:35 AM 50.0 °F - 48.2 °F 94% 30.01 in 7.0 mi South 4.6 mph - N/A   Overcast
2:55 AM 50.0 °F - 48.2 °F 94% 30.00 in 7.0 mi South 4.6 mph - N/A   Overcast
3:15 AM 50.0 °F - 48.2 °F 94% 29.99 in 5.0 mi South 4.6 mph - N/A   Overcast
3:35 AM 50.0 °F - 50.0 °F 100% 29.98 in 7.0 mi South 4.6 mph - N/A   Overcast
3:55 AM 50.0 °F - 50.0 °F 100% 29.97 in 7.0 mi Calm Calm - N/A   Overcast
4:15 AM 50.0 °F - 48.2 °F 94% 29.97 in 7.0 mi Calm Calm - N/A   Overcast
4:35 AM 50.0 °F - 48.2 °F 94% 29.97 in 7.0 mi SSE 4.6 mph - N/A   Overcast
4:55 AM 50.0 °F - 48.2 °F 94% 29.97 in 5.0 mi SSE 3.5 mph - 0.01 in   Light Drizzle
5:15 AM 50.0 °F - 48.2 °F 94% 29.96 in 4.0 mi SSE 4.6 mph - N/A   Light Drizzle
5:35 AM 50.0 °F - 48.2 °F 94% 29.96 in 5.0 mi Calm Calm - N/A   Light Drizzle
5:55 AM 50.0 °F - 48.2 °F 94% 29.95 in 7.0 mi South 3.5 mph - N/A   Overcast
6:15 AM 50.0 °F - 48.2 °F 94% 29.95 in 4.0 mi South 3.5 mph - 0.01 in Rain Light Rain
6:35 AM 50.0 °F - 48.2 °F 94% 29.95 in 3.0 mi SSE 3.5 mph - 0.03 in Rain Light Rain
6:55 AM 50.0 °F - 50.0 °F 100% 29.95 in 3.0 mi South 4.6 mph - 0.04 in Rain Rain
7:15 AM 50.0 °F - 50.0 °F 100% 29.95 in 2.5 mi South 3.5 mph - 0.02 in   Drizzle
7:35 AM 50.0 °F - 50.0 °F 100% 29.95 in 5.0 mi South 4.6 mph - 0.03 in Rain Rain
7:55 AM 50.0 °F - 50.0 °F 100% 29.94 in 4.0 mi South 6.9 mph - 0.05 in   Drizzle
8:15 AM 50.0 °F - 50.0 °F 100% 29.94 in 5.0 mi South 6.9 mph - 0.02 in   Drizzle
8:35 AM 50.0 °F - 50.0 °F 100% 29.94 in 7.0 mi South 6.9 mph - 0.03 in Rain Light Rain
8:55 AM 50.0 °F - 50.0 °F 100% 29.94 in 5.0 mi South 8.1 mph - 0.05 in Rain Rain
9:15 AM 50.0 °F - 50.0 °F 100% 29.94 in 5.0 mi South 9.2 mph - 0.02 in Rain Light Rain
9:35 AM 50.0 °F - 50.0 °F 100% 29.93 in 3.0 mi South 12.7 mph - 0.05 in Rain Rain
9:55 AM 50.0 °F - 50.0 °F 100% 29.93 in 2.5 mi SSW 12.7 mph 17.3 mph 0.08 in Rain Rain
10:15 AM 51.8 °F - 50.0 °F 94% 29.94 in 3.0 mi SSW 15.0 mph - 0.02 in Rain Light Rain
10:35 AM 51.8 °F - 50.0 °F 94% 29.94 in 4.0 mi South 12.7 mph - 0.03 in Rain Rain
10:55 AM 51.8 °F - 51.8 °F 100% 29.93 in 10.0 mi South 8.1 mph - 0.04 in   Light Drizzle
11:15 AM 51.8 °F - 51.8 °F 100% 29.93 in 10.0 mi SSE 5.8 mph - N/A   Mostly Cloudy
11:35 AM 51.8 °F - 51.8 °F 100% 29.93 in 5.0 mi SSW 17.3 mph 23.0 mph N/A   Mostly Cloudy
11:55 AM 51.8 °F - 51.8 °F 100% 29.93 in 4.0 mi SSW 18.4 mph 24.2 mph N/A   Overcast
12:15 PM 51.8 °F - 50.0 °F 94% 29.94 in 2.5 mi SSW 16.1 mph 21.9 mph N/A   Overcast
12:35 PM 51.8 °F - 50.0 °F 94% 29.93 in 2.0 mi SSW 18.4 mph 21.9 mph N/A   Light Drizzle
12:55 PM 51.8 °F - 51.8 °F 100% 29.93 in 3.0 mi SSW 16.1 mph 21.9 mph N/A   Overcast
1:15 PM 51.8 °F - 51.8 °F 100% 29.94 in 4.0 mi SSW 19.6 mph 26.5 mph N/A   Overcast
1:35 PM 51.8 °F - 51.8 °F 100% 29.94 in 4.0 mi SSW 19.6 mph 26.5 mph N/A   Overcast
1:55 PM 51.8 °F - 51.8 °F 100% 29.93 in 4.0 mi SSW 23.0 mph 28.8 mph N/A   Overcast
2:15 PM 51.8 °F - 51.8 °F 100% 29.93 in 4.0 mi South 20.7 mph 26.5 mph N/A   Overcast
2:35 PM 51.8 °F - 50.0 °F 94% 29.93 in 2.0 mi SSW 21.9 mph 29.9 mph 0.01 in Rain Light Rain
2:55 PM 51.8 °F - 50.0 °F 94% 29.93 in 3.0 mi South 20.7 mph 32.2 mph 0.02 in Rain Light Rain
3:15 PM 51.8 °F - 50.0 °F 94% 29.93 in 3.0 mi South 20.7 mph 29.9 mph N/A Rain Light Rain
3:35 PM 51.8 °F - 50.0 °F 94% 29.93 in 2.0 mi SSW 25.3 mph 34.5 mph 0.02 in Rain Light Rain
3:55 PM 51.8 °F - 50.0 °F 94% 29.93 in 1.2 mi SSW 23.0 mph 33.4 mph 0.04 in Rain Light Rain
4:15 PM 50.0 °F - 50.0 °F 100% 29.93 in 1.2 mi SSW 26.5 mph 32.2 mph 0.02 in Rain Light Rain
4:35 PM 51.8 °F - 50.0 °F 94% 29.93 in 2.0 mi South 23.0 mph 29.9 mph 0.02 in Rain Light Rain
4:55 PM 51.8 °F - 50.0 °F 94% 29.94 in 1.5 mi SSW 19.6 mph 27.6 mph 0.03 in Rain Rain
5:15 PM 50.0 °F - 50.0 °F 100% 29.95 in 1.5 mi SSW 29.9 mph 38.0 mph 0.01 in Rain Light Rain
5:35 PM 50.0 °F - 50.0 °F 100% 29.97 in 5.0 mi WNW 9.2 mph - 0.01 in   Overcast
5:55 PM 50.0 °F - 48.2 °F 94% 29.99 in 7.0 mi WNW 12.7 mph - 0.01 in   Overcast
6:15 PM 50.0 °F - 48.2 °F 94% 30.00 in 7.0 mi NW 11.5 mph 16.1 mph N/A   Overcast
6:35 PM 50.0 °F - 46.4 °F 87% 30.00 in 7.0 mi NW 9.2 mph - N/A   Overcast
6:55 PM 50.0 °F - 46.4 °F 87% 30.01 in 7.0 mi NW 12.7 mph - N/A   Mostly Cloudy
7:15 PM 50.0 °F - 46.4 °F 87% 30.02 in 7.0 mi WNW 11.5 mph - N/A   Scattered Clouds
7:35 PM 50.0 °F - 44.6 °F 82% 30.02 in 7.0 mi NW 6.9 mph - N/A   Overcast
7:55 PM 50.0 °F - 44.6 °F 82% 30.03 in 7.0 mi WNW 9.2 mph - N/A   Overcast
8:15 PM 50.0 °F - 44.6 °F 82% 30.04 in 7.0 mi NW 10.4 mph - N/A   Overcast
8:35 PM 50.0 °F - 44.6 °F 82% 30.05 in 10.0 mi WNW 10.4 mph - N/A   Overcast
8:55 PM 48.2 °F - 44.6 °F 87% 30.06 in 10.0 mi NW 6.9 mph - N/A   Mostly Cloudy
9:15 PM 48.2 °F - 44.6 °F 87% 30.07 in 7.0 mi NW 5.8 mph - N/A   Overcast
9:35 PM 48.2 °F - 44.6 °F 87% 30.07 in - NW 8.1 mph - N/A   Unknown
9:55 PM 48.2 °F - 42.8 °F 82% 30.08 in - NW 6.9 mph - N/A   Mostly Cloudy
10:15 PM 48.2 °F - 44.6 °F 87% 30.08 in - NW 6.9 mph - N/A   Overcast
10:35 PM 48.2 °F - 44.6 °F 87% 30.09 in 7.0 mi WNW 5.8 mph - N/A   Overcast
10:55 PM 46.4 °F 41.9 °F 42.8 °F 87% 30.09 in - NW 9.2 mph - N/A   Unknown
11:15 PM 46.4 °F 43.5 °F 41.0 °F 81% 30.09 in - NW 5.8 mph - N/A   Scattered Clouds
11:35 PM 46.4 °F 42.9 °F 42.8 °F 87% - - NW 6.9 mph - N/A   Scattered Clouds
11:55 PM 46.4 °F 42.9 °F 41.0 °F 81% - - NW 6.9 mph - N/A   Scattered Clouds